TimeEDT,TemperatureF,Dew PointF,Humidity,Sea Level PressureIn,VisibilityMPH,Wind Direction,Wind SpeedMPH,Gust SpeedMPH,PrecipitationIn,Events,Conditions,WindDirDegrees,DateUTC
12:53 AM,72.0,64.9,78,30.11,10.0,Calm,Calm,-,N/A,,Clear,0,2013-07-14 04:53:00
1:53 AM,72.0,64.9,78,30.10,10.0,Variable,3.5,-,N/A,,Clear,0,2013-07-14 05:53:00
2:53 AM,71.1,64.0,78,30.11,10.0,Calm,Calm,-,N/A,,Clear,0,2013-07-14 06:53:00
3:53 AM,70.0,64.0,81,30.11,10.0,Calm,Calm,-,N/A,,Partly Cloudy,0,2013-07-14 07:53:00
4:53 AM,70.0,64.0,81,30.11,10.0,Calm,Calm,-,N/A,,Clear,0,2013-07-14 08:53:00
5:53 AM,70.0,64.0,81,30.13,10.0,Calm,Calm,-,N/A,,Overcast,0,2013-07-14 09:53:00
6:53 AM,70.0,64.9,84,30.14,10.0,Calm,Calm,-,N/A,,Overcast,0,2013-07-14 10:53:00
7:53 AM,71.1,66.0,84,30.16,10.0,Calm,Calm,-,N/A,,Overcast,0,2013-07-14 11:53:00
8:53 AM,72.0,66.9,84,30.18,10.0,Variable,4.6,-,0.00,Rain,Light Rain,0,2013-07-14 12:53:00
9:53 AM,75.0,69.1,82,30.19,10.0,Calm,Calm,-,0.00,,Partly Cloudy,0,2013-07-14 13:53:00
10:53 AM,79.0,70.0,74,30.19,10.0,Variable,4.6,-,N/A,,Clear,0,2013-07-14 14:53:00
11:53 AM,82.0,70.0,67,30.19,10.0,Variable,4.6,-,N/A,,Clear,0,2013-07-14 15:53:00
12:37 PM,82.4,69.8,66,30.24,10.0,Variable,4.6,-,N/A,,Mostly Cloudy,0,2013-07-14 16:37:00
12:44 PM,82.4,69.8,66,30.24,10.0,Variable,4.6,-,N/A,,Mostly Cloudy,0,2013-07-14 16:44:00
12:53 PM,84.0,71.1,65,30.19,10.0,Calm,Calm,-,N/A,,Mostly Cloudy,0,2013-07-14 16:53:00
1:53 PM,84.9,70.0,61,30.18,10.0,Variable,5.8,-,N/A,,Mostly Cloudy,0,2013-07-14 17:53:00
2:53 PM,84.9,70.0,61,30.18,10.0,Variable,4.6,-,N/A,,Partly Cloudy,0,2013-07-14 18:53:00
3:53 PM,84.9,71.1,63,30.18,10.0,Variable,4.6,-,N/A,,Mostly Cloudy,0,2013-07-14 19:53:00
4:53 PM,82.9,69.1,63,30.17,10.0,SE,4.6,-,N/A,,Mostly Cloudy,140,2013-07-14 20:53:00
5:53 PM,82.0,68.0,62,30.18,10.0,SE,6.9,-,N/A,,Mostly Cloudy,140,2013-07-14 21:53:00
6:53 PM,82.0,66.0,58,30.17,10.0,Variable,5.8,-,N/A,,Overcast,0,2013-07-14 22:53:00
7:53 PM,81.0,68.0,65,30.19,10.0,Calm,Calm,-,N/A,,Clear,0,2013-07-14 23:53:00
8:53 PM,79.0,66.9,66,30.21,10.0,Calm,Calm,-,N/A,,Clear,0,2013-07-15 00:53:00
9:53 PM,78.1,66.9,68,30.21,10.0,Variable,3.5,-,N/A,,Clear,0,2013-07-15 01:53:00
10:53 PM,77.0,66.0,69,30.23,10.0,Calm,Calm,-,N/A,,Clear,0,2013-07-15 02:53:00
11:53 PM,77.0,66.0,69,30.23,10.0,SE,5.8,-,N/A,,Clear,130,2013-07-15 03:53:00